Regional Weather Roundup
Issued by NWS

Home | Current Version | Previous Version | Text Only | Print | Product List | Glossary Off
Versions: 1 2 3 4 5 6 7 8 9 10 11 12 13 14 15 16 17 18 19 20 21 22 23 24 25 26 27 28 29 30 31 32 33 34 35 36 37 38 39 40 41 42 43 44 45 46 47 48 49 50

374
ASUS44 KLIX 260505
RWRLA
LOUISIANA WEATHER ROUNDUP
NATIONAL WEATHER SERVICE NEW ORLEANS LA
1100 PM CST TUE NOV 25 2014

NOTE: "FAIR" INDICATES FEW OR NO CLOUDS BELOW 12,000 FEET WITH NO
      SIGNIFICANT WEATHER AND/OR OBSTRUCTIONS TO VISIBILITY.
      SKY/WX - SKY CONDITION AND SIGNIFICANT WEATHER.
      TMP - AIR TEMPERATURE.    DP   - DEWPOINT TEMPERATURE.
      RH  - RELATIVE HUMIDITY.  PRES - PRESSURE.
      HX  - HEAT INDEX.         WCI  - WIND CHILL INDEX.

*  THESE STATIONS ARE NOT NWS OR FAA STATIONS AND ARE NOT UNDER
   NWS QUALITY CONTROL.

LAZ040-048-061>063-065-066-069-260600-
SOUTHEAST LOUISIANA

CITY           SKY/WX    TMP DP  RH WIND       PRES   REMARKS
N.O. AUDUBON     N/A     50  36  58 MISG        N/A
N.O. INTL ARPT CLEAR     48  33  56 NW12      30.23S
N.O. LAKEFRONT CLEAR     51  34  52 N22       30.23R
N.O. DOWNTOWN* FAIR      50  30  46 N5        30.23S
SLIDELL        PTCLDY    43  33  68 NW3       30.21S
BATON ROUGE    CLEAR     37  34  89 CALM      30.24F
BOOTHVILLE     CLOUDY    52  34  50 NW16G23   30.19S
BELLE CHASSE   PTCLDY    48  32  53 VRB6      30.21S
BOGALUSA*        N/A     41  32  69 NW3       30.23S
NEW ROADS*     FAIR      36  34  94 CALM      30.24F
GONZALES*      FAIR      39  37  91 CALM      30.24F
HAMMOND*       CLEAR     37  34  87 CALM      30.25S
HOUMA*         CLEAR     42  35  74 NW6       30.23F
PORT FOURCHON* CLEAR     50  36  57 N12G20    30.25S

$$

LAZ041-044-053-054-260600-
SOUTHWEST LOUISIANA

CITY           SKY/WX    TMP DP  RH WIND       PRES   REMARKS
LAKE CHARLES   CLEAR     40  37  89 CALM      30.24F
LAFAYETTE      CLEAR     39  36  89 CALM      30.26R
PATTERSON      CLEAR     37  36  93 CALM        N/A
SALT POINT       N/A     49  35  58 N3        30.24F
NEW IBERIA     CLEAR     38  35  89 W3        30.27R
CHENAULT AIRPK CLEAR     39  38  95 CALM      30.25S

$$

LAZ027-028-260600-
CENTRAL LOUISIANA

CITY           SKY/WX    TMP DP  RH WIND       PRES   REMARKS
FORT POLK      CLEAR     38  37  94 SE1       30.22S
ALEXANDRIA INT CLEAR     38  36  92 SE3       30.21F
ALEXANDRIA     CLEAR     33  31  92 CALM      30.22F

$$

LAZ001-002-260600-
NORTHWEST LOUISIANA

CITY           SKY/WX    TMP DP  RH WIND       PRES   REMARKS
SHREVEPORT     CLEAR     40  34  79 CALM      30.17F
BARKSDALE AFB  CLEAR     37  31  78 SE6       30.18S WCI  32
DTN SHREVEPORT CLEAR     42  31  64 S5        30.18S

$$

LAZ014-016-260600-
NORTHEAST LOUISIANA

CITY           SKY/WX    TMP DP  RH WIND       PRES   REMARKS
MONROE         CLEAR     35  33  92 CALM      30.22F
TALLULAH       CLEAR     29  27  92 CALM      30.22S

$$




USA.gov is the U.S. government's official web portal to all federal, state and local government web resources and services.